Location: New Town
(33.2710°N, 90.7534°W)
Time: 13:05:53
(UTC+00:00)

Explorer 11/Cluster Stage 4 - Pass Details

Date: 14 May 2021
Orbit: 467 x 1257 km, 28.8° (Epoch: 14 June)

Event Time Altitude Azimuth Distance (km) Brightness Sun altitude
Rises 23:45:13 0° 215° (SW) 3,810 10.4 13.1°
Reaches altitude 10° 23:48:22 10° 202° (SSW) 2,971 9.7 12.4°
Maximum altitude 23:54:14 25° 151° (SSE) 2,215 8.6 11.3°
Drops below altitude 10° 00:00:31 10° 101° (E) 3,219 9.1 10.0°
Sets 00:04:04 0° 89° (E) 4,196 9.7 9.3°
